Flag for France Weather past 2 weeks in Rouen, France

Now
46 °F

Partly cloudy.


Feels Like: 39 °F
Forecast: 42 / 51 °F
Wind: 18 mph from West

Location: Rouen Airport

Current Time: Mar 31, 2015 at 11:12:06 PM

Latest Report: Mar 31, 2015 at 11:00 PM


Visibility: N/A

Pressure: 30.12 "Hg

Humidity: 71%

Dew point: 37 °F

Location of RouenLocation

Historic Weather in Rouen — Graph

°F

Rouen temperature yesterday

Maximum temperature yesterday: 52 °F (at 12:30 PM)
Minimum temperature yesterday: 46 °F (at 2:00 AM)
Average temperature yesterday: 49 °F

Past Weeks' High & Low Weather Summary

 TemperatureHumidityPressure
High63 °F (Mar 17, 2:30 PM)100% (Mar 21, 2:30 AM)30.42 "Hg (Mar 21, 2:30 AM)
Low28 °F (Mar 26, 4:00 AM)34% (Mar 17, 2:30 PM)29.65 "Hg (Mar 29, 5:30 PM)
Average45 °F79%30.05 "Hg
* Reported Mar 16 9:00 PM — Mar 31 10:00 PM, Rouen, Weather by CustomWeather, © 2015

Note: Actual official high and low records may vary slightly from our data, if they occured in-between our weather recording intervals... More about our weather records

Advertising

Rouen weather history for previous 24 hours

 ConditionsComfort  
Time TempWeatherWind HumidityBarometerVisibility
10:00 PM
Tue, Mar 31
46 °FPassing clouds.17 mph66%30.12 "HgN/A
9:30 PM46 °FPassing clouds.18 mph66%30.12 "HgN/A
9:00 PM46 °FMostly cloudy.21 mph71%30.09 "HgN/A
8:30 PM48 °FPartly sunny.22 mph66%30.09 "HgN/A
8:00 PM48 °FPartly sunny.21 mph58%30.09 "HgN/A
7:30 PM50 °FPartly sunny.25 mph58%30.07 "HgN/A
7:00 PM50 °FMostly cloudy.23 mph58%30.07 "HgN/A
6:30 PM52 °FPartly sunny.22 mph54%30.07 "HgN/A
6:00 PM52 °FPartly sunny.26 mph50%30.07 "HgN/A
5:30 PM52 °FPartly sunny.25 mph50%30.04 "HgN/A
5:00 PM52 °FPartly sunny.22 mph54%30.04 "HgN/A
4:30 PM54 °FPartly sunny.23 mph54%30.04 "HgN/A
4:00 PM54 °FMostly cloudy.22 mph54%30.01 "HgN/A
3:30 PM52 °FMostly cloudy.25 mph54%30.01 "HgN/A
3:00 PM54 °FPartly sunny.22 mph54%30.01 "HgN/A
2:30 PM54 °FMostly cloudy.24 mph58%29.98 "HgN/A
2:00 PM52 °FMostly cloudy.24 mph62%29.98 "HgN/A
1:30 PM50 °FMostly cloudy.20 mph67%29.95 "HgN/A
1:00 PM50 °FMostly cloudy.20 mph67%29.95 "HgN/A
12:30 PM50 °FMostly cloudy.22 mph67%29.92 "HgN/A
12:00 PM50 °FMostly cloudy.25 mph67%29.92 "HgN/A
11:30 AM50 °FMostly cloudy.26 mph67%29.89 "HgN/A
11:00 AM50 °FMostly cloudy.26 mph71%29.86 "HgN/A
10:30 AM50 °FMostly cloudy.26 mph71%29.86 "HgN/A
10:00 AM50 °FMostly cloudy.24 mph71%29.83 "HgN/A
9:30 AM50 °FOvercast.24 mph76%29.80 "HgN/A
9:00 AM50 °FOvercast.28 mph76%29.80 "HgN/A
8:30 AM50 °FOvercast.25 mph82%29.77 "HgN/A
8:00 AM50 °FLight rain. Mostly cloudy.24 mph82%29.74 "HgN/A
7:30 AM52 °FMostly cloudy.23 mph77%29.74 "HgN/A
7:00 AM52 °FMostly cloudy.28 mph77%29.74 "HgN/A
6:30 AM50 °FOvercast.28 mph88%29.74 "HgN/A
6:00 AM50 °FDrizzle. Fog.24 mph94%29.71 "Hg2 mi
5:30 AM50 °FDrizzle. Fog.23 mph94%29.71 "Hg3 mi
4:30 AM50 °FLight rain. Overcast.26 mph88%29.74 "Hg6 mi
4:00 AM52 °FOvercast.30 mph82%29.74 "HgN/A
3:30 AM52 °FOvercast.25 mph77%29.77 "HgN/A
3:00 AM52 °FOvercast.22 mph88%29.77 "HgN/A
2:30 AM54 °FOvercast.20 mph82%29.77 "HgN/A
2:00 AM54 °FOvercast.20 mph88%29.80 "HgN/A
1:30 AM54 °FLow clouds.18 mph88%29.77 "HgN/A
1:00 AM54 °FLight rain. Overcast.18 mph88%29.80 "HgN/A
12:30 AM54 °FOvercast.20 mph88%29.80 "HgN/A
12:00 AM54 °FOvercast.20 mph88%29.80 "HgN/A
11:30 PM
Mon, Mar 30
52 °FLow clouds.17 mph94%29.80 "HgN/A
11:00 PM50 °FLow clouds.17 mph94%29.83 "HgN/A
Weather by CustomWeather, © 2015

See weather overviewHow to use our weather pages